KUIPER-00551

导读

### KUIPER-00551(NORAD 69618)卫星摘要 KUIPER-00551(北美防空司令部编号69618)是亚马逊柯伊伯(Project Kuiper)低轨宽带星座的组成卫星,于2025年9月25日由联合发射联盟的Atlas V 551火箭在卡纳维拉尔角太空军基地执行KA-03任务时发射升空。该卫星初始被部署至465公里高度轨道,后续将抬升至590/610/630公里的星座目标轨道层,目前运行状态正常。柯伊伯星座总计规划3236颗卫星,旨在为全球提供高速宽带互联网服务,本次发射后亚马逊已部署该星座卫星共129颗。

基本信息
目录编号:
69618
目录名称:
KUIPER-00551
国际标识:
2026-140AC
轨道中心:
EARTH
卫星名称:
KUIPER-00551
卫星全名:
KUIPER-00551
卫星状态:
在轨 (已飞行70 天)
发射日期:
2026-06-17 UTC
国别 :
美国 (US)
星等 :
--
轨道信息
数据来源 国际轨道数据
星历时间: 2026-08-26T05:21:12+0800
13小时前
查看轨道信息
半长轴: 6829.941km
偏心率: 0.0013661
轨道倾角: 51.878°
近地点辐角 65.307°
升交点赤经 61.164°
平近点角 294.933°
近地点: 442.473km
远地点: 461.135km
周期: 93.624分钟
每日圈数: 15.380744
详细信息
使用方式:
暂无
2D轨道图
3D轨道图
轨道高度分析图
轨道倾角分析图
轨道综合分析图
查看轨道综合分析图